Back to year calendar

Bridlington Half Marathon, East Yorkshire

14th October 2007

Results submitted by Andy Godfrey for Bridlington Road Runners
(This is a sortable table - click column heading)
Filter (choose one only!)
Surname:
Cat: Club:
PosMFForenameSurnameCatClubTime
11 MartinBroadheadM40Hallamshire01:11:09
22 PumlaniBanganiMSalford H01:12:04
33 PaulMarchantMRothwell H01:12:38
44 PhillTaylorMBridlington01:13:48
55 JimBulmanMN.Y.M.A.C.01:14:17
66 SimonNewtonMAckworth01:15:30
77 RichardBellamyMN.Y.Moors01:15:32
88 DarrenSharpeMBridlington RR01:17:15
99 JohnBroomM35Holmfirth H01:17:19
1010 NickMarshMLouth AC01:17:22
1111 MartinLeeM40Rossendale01:20:45
12 1AlisonOutramLBingley H01:21:07
1312 AndrewMeskimmonM40Dewsbury RR01:21:09
1413 DaveSmithMPickering01:21:30
1514 TrevorCloughM45Leeds City01:21:39
1615 SimonGriffinMGoole Vik01:21:42
1716 MartinHallM45Dewsbury01:22:03
1817 AndrewMastermanM40Goole Vik01:22:19
1918 HowardJeffreyM50Otley AC01:22:48
20 2KateNelsonL40Knavesmire01:22:51
2119 ColinWestM45Steel City01:23:18
2220 RobertLeesMPenistone01:23:21
2321 BarryGyteM50Steel City01:23:38
2422 MichaelBrearleyM45St.Bede's01:23:47
2523 AndrewGoodairMAskern & D01:24:18
2624 JonMorganM40Driffield Str01:24:24
2725 StuartCarrollMRoyton RR01:24:30
2826 JamesMorrisM35Dewsbury01:24:37
2927 RobertKerseyM55Holmfirth01:24:43
3028 JamieLawlerMUnattached01:24:50
3129 PaulGaileM40Pudsey P01:24:51
3230 AndyLakelandMS.Y. Police01:24:59
3331 DavidRowdenM45Springhead01:25:35
3432 SteveCoatesMEast Hull H01:25:55
3533 MichaelWalshM35Ackworth01:25:59
3634 MarcellusSpringerM50Horsforth H01:26:06
3735 PaulBerryM35Halifax H01:26:11
3836 BernardGoodwinMRoyton RR01:26:32
3937 LeeGreenhalghMHorsforth H01:26:34
4038 MarkPigfordM35Holmfirth H01:26:37
4139 MichaelHoganM45Eccleshill01:26:43
4240 DavidVickersMScunthorpe01:26:57
4341 BarryGreavesM50Royton RR01:26:58
4442 DavidWoodheadMPudsey P01:27:04
4543 WayneCoulsonM60Unattached01:27:07
4644 DanBirkinshawMKimberworth01:27:28
4745 MarkHarneyM40York Acorn01:27:34
48 3DawnBroomL40Holmfirth H01:27:34
4946 PaulLycettM45Ackworth01:27:39
5047 WarwickAndersonMPocklington01:27:47
5148 TerryEastwoodM45Rotherham01:27:48
5249 DaveKershawMRoyton RR01:27:54
5350 RobSnaithMBeverley01:28:05
5451 PaulBodyMCity of Hull01:28:06
5552 PeterGulcMBridlington01:28:15
5653 ColinGreenMRoyton RR01:28:22
5754 PeteJohnsonM55Scarborough01:29:03
5855 MichaelCraigM45White City01:29:11
59 4AlexPotterLWakefield01:29:28
6056 JimWheldonM55Pudsey P01:29:30
6157 BryanLawtonM40Royton RR01:29:34
62 5AngelaHannonL35Ackworth01:29:41
63 6JillMcGeeL40Unattached01:29:45
6458 PatrickRooneyM50Kimberworth01:29:46
6559 JeffPagetM50Ilkley H01:29:52
6660 LloydBestM40Unattached01:29:54
6761 BarryEdwardsM45Unattached01:29:59
6862 JohnBaskerMBeverley01:30:21
69 7JulieBarleyL40Leeds City01:30:28
7063 ChristopherFarrellMKnavesmire01:30:38
7164 AndyToddM40Nidd Valley01:30:41
7265 KevinWatsonM60Horsforth H01:30:42
7366 DavidBellMWhite City01:30:45
7467 ArmanathAhirM50Bingley H01:31:10
7568 StephenToddMChapel All01:31:12
7669 TonyBurginM40White City01:31:23
77 8AlisonBogeyLChapel Aller01:31:26
7870 DavidWalkerM45Barracuda01:31:28
7971 DavidEmanuelM40Royton RR01:31:35
8072 MickFlahertyM45Ackworth01:31:46
8173 ColinWatsonM55Springhead01:31:50
8274 SteveBraundM55Barracuda01:31:52
8375 GaryCarlisleM45Kirkstall H01:32:06
8476 ArthurAsquithM40Unattached01:32:08
8577 NigelWarnerM55Goole Vik.01:32:15
8678 GedNaveseyM40Royton RR01:32:34
8779 MarkOglesbyM40Beverley01:32:43
8880 PhilipPaxmanM55York Acorn01:32:47
8981 ChristopherEaversM50Royton RR01:32:51
9082 AlanBoydM45Ackworth01:33:02
9183 GrahamHowellMUnattached01:33:27
9284 ChristopherAinsleyM40Leeds Tri01:33:39
9385 StephenBeeversMWakefield Tr01:33:44
9486 JamesBlandMUnattached01:33:52
95 9KarenBestL35Calder Vall01:33:54
9687 ChristopherTaylorM55Ackworth01:34:00
9788 AdrianMarshallMUnattached01:34:14
9889 DaveBurdonM50Pudsey P01:34:16
9990 TrevorBurtonM50Steel City01:34:19
10091 PeterWatkinsonM55Beverley01:34:33
10192 PaulAndrewsM40East Hull H01:34:38
102 10NicolaMooreL35City of Hull01:34:43
10393 PeteHarrisonM40Unattached01:35:00
10494 VincentBussinghamM40Eccleshill01:35:02
10595 KevinLewisM40Bridlington01:35:04
10696 MarkElliottMKimberworth01:35:07
10797 MarkTinklerM50Bedford H01:35:10
10899 EdWilliamsonMUnattached01:35:17
10998 NeilHawksleyM40Wakefield01:35:17
110101 JamesWalkingtonMUnattached01:35:21
111100 TonySmithM45Unattached01:35:21
112102 JamesBarlowMUnattached01:35:33
113103 DavidHoughM45Barracuda Tri01:35:38
114104 IainDunnM40Rothwell H01:35:47
115105 JeffreyPiersonM55Holmfirth01:35:51
116106 BruceWhittamM40Royton RR01:35:53
117107 JamesMeathMUnattached01:36:03
118108 JohnHenryM45Spenborough01:36:20
119109 MartinSmithM35Knavesmire01:36:23
120 11ClaireSpencerLKimberworth01:36:26
121110 DavidCooperM35Pudsey P01:36:29
122 12AnnFrancisL40Pudsey P01:36:35
123 13CarmenMarchantL35Rothwell H01:36:51
124111 LucClaytonMCity of Hull01:36:52
125112 PhilReayMHaltemprice01:36:53
126113 DavidPorterM40City of Hull01:36:57
127114 KevinWardM45Unattached01:37:00
128115 RobertKellettM40Royton RR01:37:01
129116 DavidFosterM50Bridlington RR01:37:02
130 14NaomiFergusonLChapel Aller01:37:03
131117 DavidNichollsM50Chapel All01:37:24
132118 LeslieMoodyM45City of Hull01:37:25
133119 CraigTurnerMUnattached01:37:28
134120 RoyYoungM55Ackworth01:37:33
135121 PhilipHaighM50Rotherham01:37:36
136 15DonnaLenaghanL35Crossgates01:37:38
137122 DavidSmithM50Royton RR01:37:51
138123 RichardKerryMUnattached01:38:01
139124 ColinParcellM45Bridlington01:38:03
140125 RonBamfordMPudsey P01:38:05
141126 IanBrookesMKimberworth01:38:11
142128 DaveDobsonMUnattached01:38:16
143127 AdenBallMAckworth01:38:16
144 16ClareNicholsonL35City of Hull01:38:17
145 17EmmaBrownLUnattached01:38:22
146129 ZoltanNagyMUnattached01:38:22
147130 ShaunForesM45East Hull H01:38:25
148131 DanielBarrassMUnattached01:38:28
149132 RobertSuttonM40Eccleshill01:38:56
150 18DianeWaiteL40Stainland L01:38:59
151133 KenChapmanM65Kimberworth01:39:00
152 19JoanneDransfieldL40Unattached01:39:03
153134 SydneyLawtonM60Pudsey P01:39:20
154135 RogerConnellM40Unattached01:39:21
155136 Not Known M 01:39:23
156137 ChrisDunnMBeverley AC01:39:30
157138 DavidWaiteM40Stainland L01:39:31
158139 PhillipSwiftM40Barnsley H01:39:34
159140 ChristopherJamiesonM45Burn Road H01:39:38
160141 StephenMitchleyMUnattached01:39:51
161142 NicholasRiggsMUnattached01:39:58
162143 DavidElliottM50York Acorn01:40:00
163144 DannyMilesM45York Post01:40:04
164 20JeanetteWilsonL40East Hull H01:40:12
165145 AndrewKirbyMUnattached01:40:15
166146 RobAllisonMUnattached01:40:20
167147 MichaelAvenellM45Unattached01:40:37
168148 ChrisWardMWakefield01:40:37
169149 GrahamCookM40City of Hull01:40:41
170150 JasonPointezMUnattached01:40:45
171 21AmandaSterlingL35Keighley01:40:46
172151 StephenDemmelM45Unattached01:40:49
173152 CharlesWeatherillM50Roadrunners01:40:50
174153 NicholasBruntonMUnattached01:40:55
175154 WayneButtrickMWootton RR01:41:02
176 22SianMorganL40Driffield01:41:08
177155 ShaunLoganM50Barnsley H01:41:13
178156 RossBlackburnMAckworth01:41:15
179157 RickyKiplingMUnattached01:41:28
180 23FidelmaAyresL45Rathfarnham01:41:50
181158 MartynStearnM55Ackworth01:41:55
182159 MikeBaystonM40East Hull H01:42:00
183160 PaulSmithM55Ackworth01:42:05
184 24TaniaCreamL40City of Hull01:42:06
185162 BarrieBuxtonM60City of Hull01:42:09
186161 SteveCooperM40City of Hull01:42:09
187163 JohnShacklockMUnattached01:42:12
188164 MichaelSmithMUnattached01:42:14
189165 DavidPudseyM45Driffield Str01:42:17
190166 StevenAbbottM45Crossgates01:42:20
191167 RobReidM40Beverley01:42:23
192168 GrahamNaylorM55White City01:42:24
193169 KevinSiplingM40Goole Vik01:42:25
194170 NeilCavillM40City of Hull01:42:28
195171 PaulFlanniganM40Unattached01:42:29
196172 PaulHustwitM55Horsforth H01:42:30
197173 IanWilsonM35Ackworth01:42:30
198174 JeremyWrightM40Unattached01:42:46
199175 StephenWardM35Crossgates01:42:55
200176 BillPikeM40Unattached01:43:01
201177 PaulDransfieldM40Unattached01:43:24
202178 MarkLovettMMablethorpe01:43:24
203179 IanTaskerMWhite City01:43:31
204 25ElizabethGraysonL35Unattached01:43:33
205 26LianeWarrenL35Ackworth01:43:35
206180 DavidByromM40Pudsey P01:43:44
207181 StevenBowleyMUnattached01:43:47
208182 NeilCresswellM45Queensbury01:43:58
209183 IanChalmersM45Grimsby Tri01:44:04
210184 PaulZywickiM45Ackworth01:44:12
211185 MartinGoodhandM45Winterton01:44:13
212186 RaymondSmithM45Goole Vik01:44:23
213 27AlisonVan de LaakLPudsey P01:44:25
214187 IanWilliamsonM60Unattached01:44:27
215188 KeithWilsonM60Goole Vik01:44:29
216189 SyamValayudhanM50Ackworth01:44:29
217190 MatthewLeeMUnattached01:44:36
218 28NicolaBondLChapel Aller01:44:45
219191 RossGunningM40Unattached01:44:45
220193 MarkDolanM45Holmfirth H01:44:58
221192 KevinSwashM50Selby Str01:44:58
222 29DebbieHogarthL45Kimberworth01:45:14
223194 DavidEdmondsonMUnattached01:45:14
224195 LiamBennettMUnattached01:45:20
225196 MichaelTaskerM65York Acorn01:45:22
226197 BarrySimonsM45Winterton01:45:26
227198 IanFergussonMUnattached01:45:30
228199 TimWilsherM40Ackworth01:45:35
229 30AndreaWilsherL35Ackworth01:45:48
230200 ShaneBythewayMUnattached01:46:01
231 31DebbieBlandL50Unattached01:46:19
232201 ColinLeaM40Knavesmire01:46:24
233202 DavidDartonM45Knavesmire01:46:24
234203 GrahamWoodM50Unattached01:46:30
235204 AndrewBennettM50Ackworth01:46:33
236 32HeatherMitchellL55Dewsbury01:46:33
237205 MatthewColeMUnattached01:46:35
238206 JohnWoodheadM50Pudsey P01:46:37
239 33SusanRansomeL50Pudsey Pacer01:46:46
240207 GeoffHayesM45Barnsley H01:46:51
241208 ShaunWalkerMUnattached01:46:51
242209 MikeLeitchM40Unattached01:46:57
243210 JohnDouglasM50Unattached01:47:09
244211 AndrewSmithMUnattached01:47:10
245212 MichaelSmithurstM40Bingley H01:47:18
246213 MartinRobsonM40Unattached01:47:19
247214 DonSteadM65Pudsey P01:47:22
248215 MichaelGledhillM60Rothwell H01:47:28
249 34TeresaHollinsL50Middleton01:47:43
250216 AdamHendersonM35Nidd Valley01:47:44
251217 MarkEstienneM35York Acorn01:48:08
252218 ChristopherSpencerMUnattached01:48:11
253219 IanChristophersonM55Barnsley H01:48:13
254220 PaulRichardsonM45York Acorn01:48:16
255 35AntoinetteWasyliwL40Lincoln Wel01:48:19
256221 KelvinWestermanM55East Hull H01:48:30
257222 StephenEllisM45Pudsey P01:48:37
258223 FrankWebsterM55Roadrunners01:48:38
259224 LindonWashbyM35East Hull H01:48:40
260225 JohnHewittM60Barnsley H01:48:42
261 36StellaDinsdaleL55White City01:48:43
262 37AprilGunningL35Unattached01:48:46
263226 BernardJonesM65Askern & D01:48:49
264227 JohnTattersallM55York Acorn01:48:51
265228 MalcProctorM50Kimberworth01:48:52
266229 PeterMcEvoyM50Unattached01:48:53
267230 MehrdadElmiehM45Unattached01:48:54
268 38SallyYarringtonL45Scunthorpe01:48:57
269231 KeithLambMMablethorpe01:49:10
270232 PeterMurrayM35York Acorn01:49:12
271233 CharlesBuckleyM45Chester Tri01:49:13
272 39JeanEntwistleL45Dewsbury01:49:16
273 40JackieLordLUnattached01:49:19
274 41AnneGilroyL50Lincoln Wel01:49:28
275234 JamesIvesonM40Unattached01:49:33
276235 MikeBrownM55Valley Str01:49:42
277 42MoiraLenaghanL65Crossgates H01:49:47
278236 MartinVanDerKooijM45Unattached01:49:52
279237 JamesHunterMSteel City01:50:00
280238 TimCockM65Holmfirth H01:50:02
281239 BernardHowellM60Unattached01:50:03
282 43HelenThompsonL50Driffield Str01:50:10
283 44JillDowsonL40Pocklington01:50:13
284 45SarahSomersL35Thirsk & S01:50:16
285 46SusanMoodyL45City of Hull01:50:24
286240 RogerTigheM60Unattached01:50:24
287 47CarronWatkinsL45Unattached01:50:28
288241 PeterThomasM45Unattached01:50:30
289242 NicholasAldersonM50Crossgates H01:50:39
290 49JayneChappellL50Uknet01:50:46
291 48KaronColleyL45Unatached01:50:46
292243 MartinWalkerM40Uknet01:50:48
293244 GrahamHarperM55Haltemprice01:50:48
294246 DavidRuddM45Unattached01:50:51
295245 DavidRowsellM45Unattached01:50:51
296 50PatsyFenelonL55Goole Vik01:51:05
297 51BethenyYoungLN.Derbysh.01:51:13
298247 PaulSheridanM40Pocklington01:51:13
299 52JennyCooperLPudsey P01:51:39
300248 DaveShawM55Ackworth01:51:44
301249 MartinAyresM55Rathfarnham01:51:58
302250 DavidThomsonM45City of Hull01:52:00
303251 AndrewBaileyM55Unattached01:52:00
304 53LisaHeathL40Pudsey P01:52:06
305252 GordonFirthM60Unattached01:52:08
306253 PhilHollinsM50Royton RR01:52:11
307 55JudithNicholsonL50East Hull H01:52:12
308 54CharlieHopeLPocklington01:52:12
309254 AlanBaskerMUnattached01:52:14
310 56RosemaryThompsonL35Chapel All01:52:16
311255 ChrisStrakerM45Unattached01:52:19
312256 ChrisDenleyM55Springhead01:52:20
313257 VicTaylorM70Ackworth01:52:22
314 57KaranMaddoxLUnattached01:52:25
315258 MartinWestM50Unattached01:52:30
316259 TrevorGrundyM60Royton RR01:52:34
317 58KarynBrodieL35Bridlington01:52:44
318260 PaulShepherdM40Unattached01:52:51
319 59LindaPorterL50Scunthorpe01:52:59
320261 PaulBucktroutMUnattached01:53:00
321262 AnthonyMellingM60Unattached01:53:04
322263 GlenSykesM40Dewsbury01:53:06
323265 BenjaminGreavesMUnattached01:53:17
324264 PeterHadgraftM45East Hull H01:53:17
325 60AlisonLeaderL40Eccleshill01:53:31
326 61JeanettePiersonL50Holmfirth01:53:36
327266 JonDurhamMUnattached01:53:41
328267 GrahamBatesM40Unattached01:53:42
329 62JayneEarleL35East Hull H01:53:51
330 63JaneCurranLBarracuda01:53:56
331269 BHed-StorrMUnattached01:54:15
332268 AStorrMUnattached01:54:15
333270 JohnSavageM45East Hull H01:54:20
334 64BeverleySteadL40Unattached01:54:28
335271 PatrickNesdenM55Kirkstall H01:54:32
336272 PaulCostelloM45Stainland L01:54:38
337 65JanetMurninL45Dewsbury01:54:38
338 66BarbaraDobsonL50Lincoln Wel01:54:53
339 67PaulaBrayLPudsey P01:55:00
340273 JohnHorncastleM35Springhead01:55:02
341274 MarcLenaghanM35Crossgates01:55:02
342275 StephenWarranM55Springhead01:55:02
343276 MatthewNutterMUnattached01:55:18
344277 GaryMortimerM45Unattached01:55:21
345278 MarkMajorMUnattached01:55:45
346 68RebeccaGilbankLUnattached01:55:47
347 69PatWoodL50Wakefield H01:55:53
348279 AndrewLawtyMUnattached01:56:06
349 70CarolynAllansonL35Bridlington01:56:09
350280 MartinAllansonM40Bridlington01:56:10
351281 SamSprostonM40Wakefield01:56:14
352 71JuliaReynoldsLUnattached01:56:18
353282 IanVoganM50Ackworth01:56:31
354 72DianeWiddowsonL40Ackworth01:56:31
355 73AnneGowingLPudsey P01:56:37
356283 RaffiAghanianM50Scarborough01:56:42
357284 StuartLayM40Kippax H01:56:45
358 74TheresaElliottL45Kimberworth01:56:48
359 75LisaChippendaleL40Unattached01:57:02
360 76ElaineSpeddingL45Lincoln Well01:57:03
361 77DebbieShearmanL35Rothwell H01:57:03
362 78AnnettePapworthL45Unattached01:57:09
363 79MichelleTonesL35Unattached01:57:21
364285 MartinEdwardsM40Pudsey P01:57:22
365 80HelenKnightLRoyton RR01:57:30
366 81RachelParkinsonLWakefield01:57:31
367286 StuartMellardM40Kimberwort01:57:34
368 82SandraMellardL45Unattached01:57:34
369 83RachelGilbankLUnattached01:57:53
370 84PatriciaBielbyL55Unattached01:58:01
371 85KerenMillerLUnattached01:58:10
372287 GregMillerMUnattached01:58:10
373 86MaddyWilsonL35Lincoln Well01:58:15
374 87JoanneShoreL35Stilton Str01:58:19
375 88MichelleRollinsonL35Unattached01:58:20
376288 PaulEvansM40Unattached01:58:27
377 89JoJaggerLUnattached01:58:36
378289 RobertSayburnM45Unattached01:59:00
379290 KevinMeakinM50Pudsey P01:59:12
380 90JayneGreensillL35Pudsey P01:59:12
381 91JackieEdwardsL50Unattached01:59:23
382291 RichardParkinM45Unattached01:59:23
383 92SarahDutsonLPudsey P01:59:25
384292 BrianMusgraveM45Unattached01:59:42
385293 PaulGoodMUnattached01:59:57
386294 PaulHoldsworthMUnattached02:00:04
387295 KevinBarberM45Scarborough02:00:06
388 93HelenHitchcockL35Unattached02:00:06
389 95LyndaTaylorL60Springhead H02:00:12
390 94JennyWingLUnattached02:00:12
391296 IanFurnessM45Unattached02:00:13
392 96SallyHardingL40Bingley H02:00:14
393 97DianeSimmonsL45Wakefield H02:00:27
394297 BarrySinarM65Ackworth02:00:47
395 98FayeJessopL35Pocklington02:00:48
396298 AlanGibsonM40Stainland L02:00:50
397 99DebbiePrinceL35Mablethorpe02:00:57
398299 RichardCousinsM40Unattached02:01:01
399300 StephenStewartsonM50Scunthorpe02:01:03
400301 JohnGoodsonM60Unattached02:01:22
401302 MartinSimpsonM55Kimberworth02:01:27
402 100JanniHansenLWakefield H02:01:39
403303 TonyMyersM60Eccleshill02:01:43
404 101DebraHowellL40York Acorn02:01:47
405304 MichaelBowlerM50Royton RR02:02:00
406305 StevenShawM50Royton RR02:02:00
407 102KatrineDenleyL55Springhead H02:02:00
408306 MarkOsborneM45Unattached02:02:01
409307 Unknown M 02:02:02
410308 PaulBuckM45Unattached02:02:11
411309 SimonYorkM40Unattached02:02:15
412311 RobinHartMUnattached02:03:33
413310 MatthewSurgeonM45Steel City02:03:33
414312 IanConwayM60Unattached02:04:06
415 103MaureenKirbyL45Springhead02:04:09
416 104VictoriaNockL35Barnsley02:04:10
417 105TeresaWilliamsL60Ackworth02:04:22
418 106LesleyHendersonL55Stainland L02:04:44
419 107JoanneAgarLHorsforth H02:04:54
420 108ZoeBloomfieldLMablethorpe02:04:55
421 109JudithMulliganL35Unattached02:05:13
422313 TonyDeanM55Ackworth02:05:21
423314 DavidSharpM45Unattached02:05:28
424 110GillianHallL50Crossgates02:05:35
425315 KevinAnholmM45Withernsea02:05:41
426 111TrishCuttsL50Pudsey P02:05:53
427 112RowenaFawcettL35Unattached02:06:05
428 113AnitaMansellLUnattached02:06:23
429316 MichaelWhitelamM60Unattached02:06:23
430317 SamWebsterMUnattached02:06:28
431 114ElizabethBagheriLBaildon R02:06:29
432 116ClaireSwiftL35City of Hull02:06:30
433 115DebraDayL40Pudsey P02:06:30
434318 TonyHunkingM50Royton RR02:06:30
435319 LeeSwiftM40City of Hull02:06:30
436320 IanBrownM60Kirkstall H02:06:38
437321 KennethBingleyM75Ackworth02:07:03
438322 AndrewHowardM65Unattached02:07:41
439 117LouisaFrostLSelby Str02:08:32
440323 RoyBeliwoodM55Unattached02:08:34
441324 JohnBellM65Ackworth02:08:39
442 118CarolLordL45Stainland L02:08:43
443 119MargaretBushnellL50Springhead H02:08:53
444 120SheilaHowesL50Unattached02:09:18
445 121KerryDimmackL35Unattached02:09:25
446325 BillMcCawM45Unattached02:09:25
447 122AnastasiaLincolnL50Idle AC02:09:25
448326 PhilipKellyMUnattached02:09:27
449327 MichaelGreenM60Unattached02:09:29
450 123FrancesToynbeeL45Unattached02:09:33
451 124JulieThompsonL45Unattached02:09:37
452328 SteveCunninghamM35City of Hull02:09:42
453329 DavidInglesonMUnattached02:09:47
454330 AndyStorkM45Unattached02:09:52
455 125LorettaRobsonL40Unattached02:10:12
456331 MalcolmLeeM55Unattached02:10:30
457 126HayleyLeeL35Unattached02:10:30
458332 RichardHansonMUnattached02:10:42
459333 JohnHansonMUnattached02:10:42
460 127EmmaGarrattLKnavesmire02:10:45
461334 RichardTwineyM60Dartmouth02:10:52
462335 AllanHarkinsM55Unattached02:10:56
463 128AnnStorrL50Lincoln Well02:11:03
464336 AndyPierceMUnattached02:11:07
465337 AdamCawkillMBuchanan B02:11:10
466338 SapnaBediMUnattached02:11:56
467 129JudithGreenwoodL60Stainland L02:12:14
468339 RonaldLaceyM70Unattached02:12:20
469340 MichaelHadfieldMUnattached02:12:28
470341 BrianSidebottomM65Unattached02:13:13
471 130KayFarrowL50Beverley02:13:13
472 131NicolaSabeyL35Stainland L02:13:53
473 132AlisonOrwinL40Unattached02:13:54
474 133ConsuelaSackfieldL50Unattached02:14:23
475 134DawnMcKieL40Unattached02:14:31
476 135TracyRafterL35Unattached02:14:35
477 138PatriciaWarranL55Springhead H02:15:02
478 136LizRaperL55Unattached02:15:02
479 137AnnPickupL55Unattached02:15:02
480 139RachelGrayL40Barnsley H02:15:53
481343 GavinFeldtMUnattached02:15:54
482342 JulianCrabtreeM40Springhead02:15:54
483 140KarenMessengerLUnattached02:16:00
484344 NoelButlerM50Nidd Valley02:16:27
485345 BrianDoddM70Ackworth02:17:03
486346 ArthurJamesM70Pudsey P02:17:28
487 141JeanSnellingL70Knavesmire H02:18:33
488347 RobertThomsonM70Haltemprice02:19:03
489 142ChristineHallL50Ackworth RR02:19:17
490 143KarenYouelL40Ackworth02:19:24
491 144NadegeChouteauLUnattached02:19:39
492 145ChristineMorganL60Springhead H02:20:07
493 146JaneHartasL40Knavesmire H02:20:09
494348 ArthurWoodM55Pudsey P02:21:45
495 147MaxineFirthL50Unattached02:22:38
496349 PeterTaylorM65Unattached02:22:43
497350 IvorIbbitsonM65Unattached02:22:50
498 148SarahButlerLUnattached02:23:51
499351 JohnPowerM50Unattached02:25:50
500 149HyacintheKempL35Unattached02:26:50
501352 BarryThorleyM65Unattached02:31:55
502353 PanicosPiccosM55Unattached02:33:20
503 150SusanBirbeckL40Eccleshill02:35:33
504354 JohnParkerM60Unattached02:39:00
505 151AmandaBirdL45Unattached02:39:12
506 153SueAitkenL40Stainland L02:45:58
507 152JoanneHirstL40Stainland L02:45:58
508 154LesleyMartinL45Unattached02:52:26
509 155CarolBullL35Unattached02:55:06
510355 AdamBullM40Unattached02:55:06
Back to year index - Top of page